World > North America > United States > Minnesota > Salol

Hourly Salol, MN Regional Weather

Feedback E-mail the Weather

Quick WX

Salol, MN Weather Maps

°F °C°F °C
Salol Weather Map
UTC Time: 8/18/2022, 05:02
Your Time:

Salol, MN Regional Weather

Expires:202208180500;;233011
ASUS43 KMPX 180410
RWRMN 
WEATHER ROUNDUP FOR MINNESOTA
NATIONAL WEATHER SERVICE TWIN CITIES/CHANHASSEN MN
1100 PM CDT WED AUG 17 2022


NOTE: "FAIR" INDICATES FEW OR NO CLOUDS BELOW 12,000 FEET WITH NO
SIGNIFICANT WEATHER AND/OR OBSTRUCTIONS TO VISIBILITY. N/A MEANS
CURRENT SKY AND/OR WEATHER CONDITIONS ARE NOT AVAILABLE.


MNZ001>005-007-008-013>017-022>024-027-028-180500-
   Northwest Minnesota   
  
CITY           SKY/WX    TMP DP  RH WIND       PRES   REMARKS
BEMIDJI        MOCLDY    72  65  78 CALM      29.99S                  
HALLOCK        PTCLDY    66  66 100 CALM      29.94S                  
ROSEAU           N/A     70  66  88 CALM      29.96F                  
WARROAD        RAIN      68  64  88 S3        29.97F                  
THIEF RVR FALL PTCLDY    67  67 100 CALM      29.97F                  
CROOKSTON      PTCLDY    72  64  78 CALM      29.96F                  
FOSSTON        PTCLDY    64  64 100 CALM      29.98F                  
DETROIT LAKES  CLOUDY    72  66  83 CALM      29.99R                  
MOORHEAD       PTCLDY    73  68  83 CALM      29.97S                  
PARK RAPIDS    MOCLDY    71  64  78 S6        30.00S                  
MAHNOMEN       FAIR      67  67  99 CALM      29.98S                  
$$

SKY/WX - Weather  TMP - Temperature  DP - Dew Point  RH - Humidity
WIND - Wind Direction/Speed PRES - Barometric Pressure VSB - Visibility
WCI - Wind Chill Index E13G22 Wind - East Wind 13 mph/Gusts of 22 mph

Trending Headlines

Salol Radar Loop



Salol Quick Facts


National Two Day Weather Forecast


E-mail the Salol Weather Forecast

Voice your opinion or tell us about page issues...